[[{"header":{"parameterUnit":"m.s-1","parameterCategory":1,"la1":30.2991,"la2":30.254,"lo1":-89.0895,"lo2":-89.0444,"dy":0.0017,"dx":0.0017,"nx":28,"ny":28,"refTime":"2023-09-14T09:00:00:Z","depth":0,"parameterNumber":2,"parameterNumberName":"U-component_of_WINDS"},"data":[0,0,0,0,0,0,0,0,0,0,0,0,0,0,0,0,0,0,0,0,0,0,0,0,0,0,0,0,0,0,0,0,0,0,0,0,0,0,0,0,0,0,0,0,0,0,0,0,0,0,0,0,0,0,0,0,0,0,-3.0722,-3.0722,0,-3.071,-3.071,-3.071,-3.0584,-3.0581,-3.0578,-3.0575,-3.0565,-3.0568,-3.0571,0,0,0,0,0,0,0,0,0,0,0,0,0,-3.0639,-3.0642,-3.0722,-3.0722,-3.0722,-3.071,-3.071,-3.071,-3.0585,-3.0581,-3.0577,-3.0573,-3.0565,-3.0568,-3.0571,0,0,0,0,0,0,0,0,0,0,0,0,0,-3.0656,-3.0642,-3.0722,-3.0658,-3.0652,-3.071,-3.071,-3.071,-3.0585,-3.0581,-3.0576,-3.0572,-3.0563,-3.0567,-3.0571,-3.0691,0,0,-3.0584,-3.0585,0,0,0,0,0,0,0,0,-3.0656,-3.066,-3.0668,-3.0663,-3.0656,-3.0644,-3.0677,-3.0703,-3.0587,-3.0611,-3.0575,-3.0569,-3.0595,-3.0597,-3.0605,-3.069,-3.069,-3.0584,-3.0586,-3.0588,-3.0589,0,0,0,0,0,0,0,-3.0655,-3.0659,-3.0717,-3.0668,-3.0661,-3.063,-3.0628,-3.0681,-3.063,-3.0608,-3.0599,-3.0599,-3.0591,-3.0601,-3.0604,-3.069,-3.0584,-3.0587,-3.059,-3.0591,-3.0871,-3.0876,0,0,0,0,0,0,-3.0662,-3.0659,-3.0718,-3.0717,-3.0644,-3.0636,-3.0633,-3.0653,-3.0629,-3.0621,-3.0603,-3.0594,-3.0597,-3.0599,-3.0603,-3.074,-3.0588,-3.0592,-3.0594,-3.0866,-3.0872,-3.0878,0,0,0,0,0,0,-3.0661,-3.0668,-3.0718,-3.0686,-3.069,-3.0642,-3.0666,-3.0655,-3.0664,-3.0625,-3.0616,-3.0623,-3.0593,-3.0597,-3.0669,-3.0738,-3.0594,-3.0597,-3.086,-3.0868,-3.0875,-3.1017,0,0,0,0,0,0,-3.0659,-3.0669,-3.0713,-3.0688,-3.0692,-3.0785,-3.067,-3.0658,-3.0671,-3.0658,-3.0641,-3.0633,-3.059,-3.0664,-3.0673,-3.0741,-3.06,-3.0854,-3.0864,-3.0873,-3.1006,-3.1028,-3.1048,0,0,0,0,0,-3.0656,-3.0755,-3.0716,-3.0724,-3.0747,-3.0789,-3.0792,-3.0739,-3.0677,-3.0722,-3.0696,-3.0634,-3.0729,-3.0672,-3.0682,-3.0752,-3.0849,-3.0861,-3.0872,-3.0997,-3.1024,-3.1047,0,0,0,0,0,0,-3.0792,-3.075,-3.0707,-3.08,-3.0799,-3.0768,-3.0823,-3.077,-3.0787,-3.0774,-3.0708,-3.0705,-3.0787,-3.0776,-3.0714,-3.0866,-3.0778,-3.0792,-3.087,-3.0896,-3.0916,-3.0917,-3.0604,0,0,0,0,0,-3.0832,-3.087,-3.0832,-3.0917,-3.0919,-3.0871,-3.0888,-3.0847,-3.0843,-3.0843,-3.0822,-3.0822,-3.0852,-3.0873,-3.0898,-3.1003,-3.0998,-3.1056,-3.1077,-3.1094,-3.1107,-3.1162,-3.1187,-3.0915,-3.0915,-3.0914,0,0,-3.0917,-3.0899,-3.0927,-3.0944,-3.0938,-3.0979,-3.0872,-3.092,-3.0949,-3.085,-3.0917,-3.0902,-3.0897,-3.0986,-3.1025,-3.098,-3.1181,-3.1109,-3.1123,-3.1126,-3.1176,-3.1202,-3.1225,-3.0922,-3.0921,-3.092,0,0,-3.1092,-3.1082,-3.1151,-3.1147,-3.1139,-3.1106,-3.1123,-3.11,-3.1086,-3.1151,-3.1077,-3.1112,-3.1164,-3.1164,-3.117,-3.1343,-3.1286,-3.1353,-3.1463,-3.1516,-3.1538,-3.1556,-3.1618,-3.1641,-3.1366,-3.1366,-3.1366,0,-3.1198,-3.1256,-3.1195,-3.1247,-3.1256,-3.1166,-3.1237,-3.1236,-3.1238,-3.1247,-3.1196,-3.1259,-3.125,-3.1337,-3.1379,-3.1387,-3.1405,-3.1355,-3.1539,-3.1557,-3.1574,-3.1632,-3.1655,-3.1374,-3.1373,-3.1373,-3.1372,0,-3.1387,-3.1428,-3.1485,-3.1487,-3.1503,-3.1564,-3.1512,-3.1536,-3.1493,-3.1466,-3.1533,-3.1518,-3.1539,-3.1556,-3.1515,-3.1638,-3.161,-3.1551,-3.1462,-3.1609,-3.1663,-3.1684,-3.1386,-3.1383,-3.1381,-3.1379,0,0,-3.1649,-3.1614,-3.1636,-3.1635,-3.1618,-3.1649,-3.1706,-3.1724,-3.1746,-3.1749,-3.1795,-3.1841,-3.1785,-3.1793,-3.1751,-3.1798,-3.1935,-3.1732,-3.1731,-3.1771,-3.2069,-3.2114,-3.2141,-3.1897,-3.1901,-3.1904,-3.2069,0,-3.1817,-3.1911,-3.1857,-3.1959,-3.1995,-3.191,-3.1959,-3.1955,-3.193,-3.1958,-3.1931,-3.1965,-3.1889,-3.1893,-3.1935,-3.191,-3.1994,-3.1897,-3.194,-3.1942,-3.1944,-3.2169,-3.2217,-3.2374,-3.209,-3.2093,-3.2096,0,-3.2026,-3.2037,-3.2142,-3.2117,-3.213,-3.2176,-3.2187,-3.2215,-3.2208,-3.2187,-3.2195,-3.2141,-3.2195,-3.2106,-3.218,-3.2115,-3.2129,-3.2119,-3.2124,-3.2127,-3.2029,-3.2178,-3.2423,-3.2447,-3.2128,-3.2126,-3.2123,0,-3.2207,-3.2247,-3.2315,-3.2317,-3.2289,-3.2323,-3.2313,-3.2301,-3.2315,-3.2326,-3.2334,-3.2351,-3.2361,-3.2376,-3.2328,-3.2268,-3.2409,-3.2316,-3.2393,-3.2395,-3.2428,-3.2426,-3.2679,-3.2436,-3.2436,-3.2436,-3.2435,0,-3.2401,-3.2469,-3.2396,-3.2438,-3.2511,-3.2448,-3.2522,-3.2503,-3.2493,-3.253,-3.2457,-3.2494,-3.2428,-3.2459,-3.2422,-3.2488,-3.2493,-3.2478,-3.2468,-3.2485,-3.2487,-3.2494,-3.2482,-3.2442,-3.244,-3.2439,-3.2438,0,-3.2616,-3.2569,-3.2638,-3.2605,-3.2598,-3.2654,-3.2626,-3.2664,-3.2633,-3.2681,-3.2689,-3.2642,-3.2674,-3.2627,-3.2654,-3.2629,-3.2721,-3.2694,-3.2723,-3.2716,-3.2795,-3.2789,-3.3062,-3.3094,-3.2831,-3.2834,-3.2836,0,-3.2743,-3.2793,-3.2765,-3.2783,-3.2777,-3.2809,-3.2822,-3.2761,-3.2778,-3.2772,-3.2811,-3.2836,-3.2853,-3.2907,-3.2877,-3.2897,-3.2869,-3.2964,-3.2872,-3.2888,-3.2871,-3.2869,-3.2874,-3.2983,-3.2986,-3.2989,-3.2991,0,-3.2974,-3.2948,-3.2969,-3.2982,-3.2999,-3.3006,-3.3009,-3.3028,-3.2964,-3.2987,-3.3017,-3.303,-3.3056,-3.3082,-3.3094,-3.3085,-3.3028,-3.3019,-3.3038,-3.3057,-3.3072,-3.3065,-3.2775,-3.3014,-3.3012,-3.301,-3.3009,-3.3008,-3.3149,-3.3189,-3.3174,-3.32,-3.3194,-3.3198,-3.3231,-3.3204,-3.3228,-3.3243,-3.3206,-3.3245,-3.3236,-3.3245,-3.3242,-3.3273,-3.3232,-3.3259,-3.3266,-3.3274,-3.3286,-3.3067,-3.3275,-3.3274,-3.3273,-3.3273,-3.3272,0,-3.3376,-3.3362,-3.3385,-3.339,-3.341,-3.3352,-3.3351,-3.3372,-3.3407,-3.3402,-3.3419,-3.3454,-3.3478,-3.3448,-3.3467,-3.3498,-3.3472,-3.3505,-3.3502,-3.3501,-3.3322,-3.3304,-3.3525,-3.3525,-3.3525,-3.3525,-3.3525,-3.3525,-3.3496,-3.356,-3.3532,-3.3593,-3.3578,-3.3614,-3.3619,-3.3622,-3.3617,-3.3658,-3.3677,-3.3657,-3.3642,-3.3659,-3.3679,-3.367,-3.3681,-3.3723,-3.3705,-3.3538,-3.3514,-3.349,-3.3472,-3.3726,-3.3726,-3.3881,-3.3882,-3.3883]},{"header":{"parameterUnit":"m.s-1","parameterCategory":1,"la1":30.2991,"la2":30.254,"lo1":-89.0895,"lo2":-89.0444,"dy":0.0017,"dx":0.0017,"nx":28,"ny":28,"refTime":"2023-09-14T09:00:00:Z","depth":0,"parameterNumber":3,"parameterNumberName":"V-component_of_WINDS"},"data":[0,0,0,0,0,0,0,0,0,0,0,0,0,0,0,0,0,0,0,0,0,0,0,0,0,0,0,0,0,0,0,0,0,0,0,0,0,0,0,0,0,0,0,0,0,0,0,0,0,0,0,0,0,0,0,0,0,0,-3.19,-3.1901,0,-3.1998,-3.1999,-3.2,-3.2008,-3.2007,-3.2006,-3.2005,-3.2101,-3.2104,-3.2108,0,0,0,0,0,0,0,0,0,0,0,0,0,-3.1715,-3.1719,-3.19,-3.1902,-3.1903,-3.1998,-3.1999,-3.2001,-3.2008,-3.2007,-3.2005,-3.2004,-3.2099,-3.2104,-3.2108,0,0,0,0,0,0,0,0,0,0,0,0,0,-3.1802,-3.172,-3.19,-3.1918,-3.1921,-3.1998,-3.1999,-3.2001,-3.2008,-3.2007,-3.2005,-3.2004,-3.2098,-3.2103,-3.2108,-3.2173,0,0,-3.2125,-3.2127,0,0,0,0,0,0,0,0,-3.1798,-3.1809,-3.1914,-3.1917,-3.192,-3.1989,-3.1969,-3.2059,-3.2009,-3.1975,-3.2005,-3.2003,-3.2065,-3.2073,-3.2094,-3.2178,-3.2182,-3.2125,-3.2128,-3.2131,-3.2132,0,0,0,0,0,0,0,-3.1792,-3.1805,-3.1939,-3.1916,-3.1919,-3.192,-3.193,-3.1986,-3.2027,-3.1978,-3.1978,-3.199,-3.2066,-3.2089,-3.2097,-3.2183,-3.2125,-3.213,-3.2133,-3.2135,-3.2323,-3.2324,0,0,0,0,0,0,-3.1783,-3.18,-3.1936,-3.1942,-3.1854,-3.1924,-3.1936,-3.1968,-3.2027,-3.2034,-3.1991,-3.199,-3.2081,-3.209,-3.21,-3.2178,-3.2131,-3.2136,-3.2139,-3.2321,-3.2323,-3.2325,0,0,0,0,0,0,-3.1779,-3.1795,-3.1932,-3.1871,-3.1889,-3.1929,-3.1965,-3.1971,-3.1995,-3.2037,-3.2044,-3.2008,-3.208,-3.2092,-3.2155,-3.2182,-3.2138,-3.2143,-3.2319,-3.2322,-3.2324,-3.2336,0,0,0,0,0,0,-3.1773,-3.1793,-3.1819,-3.1872,-3.1892,-3.1986,-3.1967,-3.1974,-3.2004,-3.2003,-3.2055,-3.2061,-3.208,-3.2147,-3.216,-3.2188,-3.2147,-3.2316,-3.232,-3.2323,-3.2334,-3.2339,-3.2344,0,0,0,0,0,-3.1767,-3.1818,-3.1821,-3.1837,-3.1926,-3.1988,-3.1999,-3.2021,-3.2006,-3.2032,-3.2059,-3.206,-3.2177,-3.2153,-3.2168,-3.2198,-3.2315,-3.2319,-3.2323,-3.2331,-3.2338,-3.2343,0,0,0,0,0,0,-3.1767,-3.1826,-3.1829,-3.1899,-3.1939,-3.1989,-3.2022,-3.2027,-3.207,-3.2068,-3.2091,-3.2102,-3.2163,-3.2187,-3.216,-3.2263,-3.2244,-3.2251,-3.2245,-3.2252,-3.2257,-3.2249,-3.2151,0,0,0,0,0,-3.1775,-3.1823,-3.1871,-3.1928,-3.1948,-3.1982,-3.201,-3.2023,-3.2064,-3.208,-3.2112,-3.2151,-3.2196,-3.2225,-3.227,-3.2337,-3.2347,-3.2365,-3.237,-3.2374,-3.238,-3.2416,-3.2424,-3.2338,-3.2338,-3.2338,0,0,-3.1793,-3.1831,-3.1859,-3.1929,-3.1961,-3.2008,-3.1996,-3.2046,-3.208,-3.2087,-3.2148,-3.2173,-3.2217,-3.2282,-3.2312,-3.2304,-3.2406,-3.2379,-3.2382,-3.2386,-3.2421,-3.2429,-3.2436,-3.2341,-3.234,-3.234,0,0,-3.1848,-3.1882,-3.1933,-3.1966,-3.2015,-3.2037,-3.2049,-3.2099,-3.2116,-3.2178,-3.2184,-3.2224,-3.2303,-3.2334,-3.236,-3.2427,-3.2428,-3.244,-3.2466,-3.2501,-3.2508,-3.2514,-3.2536,-3.2544,-3.2446,-3.2446,-3.2446,0,-3.1863,-3.1935,-3.1959,-3.2009,-3.2039,-3.2049,-3.2099,-3.2129,-3.219,-3.2209,-3.2199,-3.2297,-3.2328,-3.24,-3.2416,-3.2437,-3.245,-3.2434,-3.2505,-3.2511,-3.2517,-3.2539,-3.2547,-3.2447,-3.2447,-3.2447,-3.2447,0,-3.1951,-3.2,-3.2035,-3.2095,-3.2129,-3.2179,-3.2208,-3.2239,-3.2249,-3.2272,-3.2333,-3.2371,-3.2422,-3.244,-3.245,-3.2513,-3.2506,-3.2501,-3.2482,-3.2526,-3.2547,-3.2555,-3.2449,-3.2448,-3.2448,-3.2448,0,0,-3.2009,-3.208,-3.2092,-3.2119,-3.2174,-3.2212,-3.2261,-3.2313,-3.2339,-3.238,-3.2421,-3.2487,-3.2482,-3.2511,-3.2524,-3.2555,-3.2604,-3.2546,-3.2547,-3.2554,-3.2674,-3.2677,-3.2686,-3.2606,-3.2607,-3.2609,-3.2669,0,-3.2069,-3.216,-3.2182,-3.2258,-3.2303,-3.2313,-3.2356,-3.2393,-3.2416,-3.2456,-3.248,-3.2526,-3.2517,-3.2534,-3.2565,-3.2591,-3.2628,-3.2587,-3.2642,-3.2644,-3.263,-3.2697,-3.2701,-3.2756,-3.2678,-3.2679,-3.268,0,-3.2152,-3.2196,-3.2277,-3.2325,-3.2345,-3.2383,-3.2432,-3.2471,-3.2513,-3.2527,-3.256,-3.257,-3.262,-3.26,-3.2668,-3.264,-3.2664,-3.268,-3.2683,-3.2688,-3.2664,-3.2702,-3.2775,-3.2782,-3.2693,-3.2692,-3.2691,0,-3.2184,-3.2264,-3.2322,-3.2345,-3.2403,-3.2429,-3.2454,-3.2495,-3.2524,-3.2566,-3.2584,-3.2631,-3.2656,-3.2692,-3.2713,-3.2697,-3.278,-3.2762,-3.2791,-3.2791,-3.2808,-3.2806,-3.2883,-3.2825,-3.2825,-3.2825,-3.2825,0,-3.2249,-3.2297,-3.2337,-3.2373,-3.2428,-3.2452,-3.2505,-3.253,-3.2566,-3.2605,-3.2617,-3.2653,-3.2681,-3.2721,-3.2738,-3.2791,-3.2803,-3.2814,-3.2818,-3.2813,-3.2811,-3.2828,-3.2824,-3.2827,-3.2827,-3.2826,-3.2826,0,-3.2293,-3.2322,-3.2387,-3.2436,-3.245,-3.2488,-3.2529,-3.2564,-3.2586,-3.2636,-3.2649,-3.2684,-3.2732,-3.2758,-3.2817,-3.2829,-3.2888,-3.289,-3.2874,-3.2875,-3.2903,-3.29,-3.2993,-3.3006,-3.294,-3.2941,-3.2941,0,-3.2332,-3.237,-3.2424,-3.2452,-3.2478,-3.2523,-3.2553,-3.2578,-3.2608,-3.2658,-3.2686,-3.2735,-3.2775,-3.285,-3.288,-3.2925,-3.2927,-3.2957,-3.2934,-3.2927,-3.2926,-3.2923,-3.2926,-3.296,-3.2961,-3.2961,-3.2962,0,-3.2397,-3.2409,-3.2453,-3.2501,-3.2537,-3.2576,-3.2615,-3.2637,-3.2667,-3.2701,-3.275,-3.2781,-3.2842,-3.289,-3.2937,-3.2961,-3.2966,-3.2969,-3.2978,-3.2972,-3.2961,-3.2966,-3.2884,-3.2966,-3.2966,-3.2966,-3.2965,-3.2965,-3.2439,-3.2473,-3.2516,-3.2563,-3.2595,-3.2631,-3.2665,-3.2693,-3.2735,-3.2787,-3.2799,-3.285,-3.289,-3.2955,-3.298,-3.302,-3.3014,-3.3027,-3.303,-3.3033,-3.3033,-3.2956,-3.3029,-3.3028,-3.3028,-3.3028,-3.3028,0,-3.2503,-3.2531,-3.2575,-3.2629,-3.2666,-3.2669,-3.2712,-3.2742,-3.2788,-3.2825,-3.2865,-3.2921,-3.2967,-3.3,-3.3047,-3.3072,-3.3075,-3.3083,-3.3081,-3.3086,-3.3037,-3.3024,-3.308,-3.3079,-3.3079,-3.3079,-3.3079,-3.3079,-3.2541,-3.2598,-3.2615,-3.2687,-3.2715,-3.2766,-3.279,-3.2822,-3.2852,-3.2915,-3.2953,-3.2975,-3.3011,-3.306,-3.3101,-3.311,-3.3126,-3.3133,-3.3142,-3.3095,-3.3089,-3.3084,-3.3072,-3.3137,-3.3137,-3.3187,-3.3188,-3.3188]}]]